Location: Easter Hill Village
(37.9235°N, 122.3444°W)
Time: 01:23:51
(UTC+00:00)

Daily predictions for brighter satellites

Satellite Brightness Start Highest point End
(mag) Time Altitude Azimuth Time Altitude Azimuth Time Altitude Azimuth
Cosmos 2061 Rocket 4.4 03:40:07 10° SSW 03:46:17 70° W 03:52:29 10° N
ATLAS 2AS CENTAUR R/B 3.8 03:40:58 10° SSE 03:47:22 29° ESE 03:53:41 10° NE
Cosmos 1666 Rocket 3.9 03:46:30 10° N 03:50:48 50° E 03:55:06 10° SSE
Cosmos 1805 Rocket 4.2 03:47:04 10° NNW 03:51:27 59° W 03:55:47 10° S
Cosmos 968 Rocket 3.7 03:46:36 10° SSW 03:51:45 80° WNW 03:56:54 10° NNE
Resurs 1-3 4.1 03:47:51 10° SE 03:51:59 43° ENE 03:56:09 10° N
NOSS 3-4 (A) 3.3 03:46:27 10° SSW 03:52:05 89° WNW 03:58:06 10° NNE
NOSS 3-4 (C) 3.3 03:46:29 10° SSW 03:52:09 90° WNW 03:58:11 10° NNE
SJ-6B 2.7 03:48:56 10° SSE 03:52:44 73° ENE 03:56:30 10° N
Meteor 1-5 Rocket 4.1 03:47:57 10° N 03:53:20 89° WSW 03:58:37 10° S
H-2A R/B 2.6 03:50:13 10° SSE 03:54:36 81° ENE 03:58:53 10° N
Cosmos 1315 Rocket 3.1 03:50:42 10° N 03:54:40 51° ENE 03:58:34 10° SSE
SJ 16-02 3.1 03:53:45 10° SE 03:55:58 14° E 03:58:11 10° ENE
Cosmos 1633 Rocket 3.3 03:54:28 10° N 03:58:42 49° E 04:02:54 10° SSE
ATLAS 5 CENTAUR R/B 3.9 03:44:22 10° WSW 03:59:37 24° SSW 04:05:19 10° SSE
Cosmos 1666 4.2 03:56:37 10° NNW 04:00:10 38° W 04:03:39 10° SSW
Cosmos 1743 4.3 03:59:54 10° NNE 04:02:36 18° ENE 04:05:10 10° ESE
Okean O Rocket 4.3 04:01:52 10° SW 04:04:39 17° W 04:07:25 10° NW
Sich 1 3.9 04:01:04 10° NNW 04:05:17 51° W 04:09:27 10° SSW
Meteor 1-10 Rocket 4.2 04:02:00 10° S 04:07:31 76° E 04:13:07 10° NNE
Cosmos 1470 Rocket 4.2 04:06:22 10° N 04:10:23 37° ENE 04:14:11 11° SE
Cosmos 44 4.3 04:10:08 10° NW 04:14:07 37° WSW 04:18:08 10° S
OAO 3 Rocket 3.4 04:09:57 10° W 04:14:46 60° S 04:19:18 12° ESE
Meteor 1-27 Rocket 3.9 04:10:59 10° S 04:16:34 56° E 04:22:18 10° NNE
Cosmos 2208 Rocket 4.1 04:13:38 10° NNW 04:19:05 84° WSW 04:24:26 10° SSE
NOSS 3-2 (C) 4.4 04:11:30 10° NW 04:19:22 77° WSW 04:28:10 10° SSE
Cosmos 1515 Rocket 3.7 04:16:16 10° S 04:20:29 52° E 04:24:46 10° NNE
Resurs 01 Rocket 2.1 04:16:57 12° SE 04:20:42 43° ENE 04:24:53 10° N
ISS -0.8 04:21:08 10° N 04:21:52 11° NNE 04:22:36 10° NNE
CENTAUR R/B 4.0 04:15:42 10° NW 04:23:53 51° WSW 04:32:31 10° S
Cosmos 2219 3.2 04:18:26 10° NNW 04:24:05 70° ENE 04:28:57 14° SSE
Cosmos 1544 4.5 04:20:49 10° NNW 04:24:05 36° W 04:27:19 10° SSW
Ariane Rocket 3.6 04:20:59 14° SE 04:24:59 40° ENE 04:29:43 10° N
IGS 5A 3.8 04:21:41 10° S 04:25:48 68° W 04:29:56 10° NNW
PSLV R/B 3.8 04:22:50 10° NNE 04:26:53 82° ESE 04:30:54 10° S
Cosmos 921 Rocket 4.4 04:23:16 10° N 04:27:03 26° ENE 04:29:35 16° ESE
Cosmos 2082 4.4 04:25:16 10° N 04:30:33 40° ENE 04:34:24 17° ESE
Landsat 7 3.8 04:27:05 10° SSE 04:31:48 86° WSW 04:36:32 10° NNW
Cosmos 2263 Rocket 3.7 04:28:21 10° N 04:32:31 21° NE 04:35:57 13° E
Okean-O 4.3 04:28:41 10° SSW 04:32:36 31° W 04:36:33 10° NW
Cosmos 2034 Rocket 4.4 04:27:22 10° SSE 04:33:11 43° E 04:39:07 10° NNE
SL-12 R/B (Aux Motor) 3.6 04:30:09 10° WSW 04:33:33 89° NW 04:35:26 10° ENE
Meteor 1-11 Rocket 3.8 04:29:16 10° N 04:35:16 80° E 04:40:53 11° SSE
Cosmos 2228 Rocket 4.3 04:36:12 19° SE 04:38:03 25° E 04:41:46 10° NE
USA 238 DEB 4.4 04:32:07 10° NW 04:39:21 57° WSW 04:46:37 11° SSE
USA 238 4.4 04:32:14 10° NW 04:39:29 58° WSW 04:46:42 11° SSE
Okean 1 4.1 04:37:49 21° SE 04:39:46 33° E 04:43:24 10° NNE
Cosmos 1536 2.8 04:37:45 10° N 04:41:47 71° E 04:44:32 19° SSE
Cosmos 1184 Rocket 2.4 04:39:40 14° S 04:42:09 81° E 04:45:10 10° N
RESURS DK-1 2.6 04:40:42 10° S 04:44:38 45° ESE 04:48:35 10° NE
ASTRO E2 4.0 04:41:55 10° WSW 04:45:06 24° SSW 04:46:10 21° SSE
IRAS Rocket 4.2 04:40:07 10° NNE 04:45:47 87° ESE 04:51:25 10° SSW
Aureole 1 Rocket 3.5 04:42:50 10° SW 04:46:04 43° WNW 04:48:58 10° N
SL-4 R/B 2.2 04:42:26 10° NW 04:47:00 74° NE 04:49:24 25° ESE
BREEZE-M DEB (TANK) 4.3 04:44:39 10° WNW 04:47:58 35° SW 04:51:25 17° SSE
Cosmos 2227 Rocket 2.6 04:45:56 10° NNW 04:51:31 60° WSW 04:56:08 15° S
NOSS 2-1 (C) 4.4 04:55:01 20° E 04:55:01 20° E 04:56:29 10° ENE
H-2A R/B 3.6 04:50:11 10° N 04:53:56 36° WNW 04:57:42 10° SW
Cosmos 1980 Rocket 2.3 04:50:08 10° SSW 04:55:45 82° WNW 05:01:27 10° NNE
ARGOS Delta rocket 4.4 04:51:27 10° N 04:56:55 72° WNW 05:02:14 10° SSW
Cosmos 1777 Rocket 4.1 04:53:11 15° S 04:57:18 51° ESE 05:02:22 10° NNE
Spot 2 Rocket 4.4 04:56:36 23° ESE 04:58:42 32° ENE 05:03:07 10° N
Cosmos 1354 Rocket 4.0 04:53:57 10° SSW 04:59:13 89° E 05:04:33 10° NNE
Cosmos 405 4.5 04:57:47 10° NNW 05:00:52 32° W 05:03:32 12° SSW
Cosmos 1809 Rocket 4.5 04:55:53 10° N 05:01:59 64° E 05:05:42 25° SSE
CZ-4B R/B 3.0 04:59:06 10° N 05:01:59 32° WNW 05:04:49 10° SW
SPOT 3 Rocket 3.7 04:59:24 27° SE 05:02:04 56° ENE 05:07:06 10° N
Cosmos 389 Rocket 2.5 04:58:57 10° NNW 05:02:28 76° W 05:04:00 31° S
Cosmos 773 Rocket 4.5 04:58:46 10° N 05:03:46 45° ENE 05:05:56 29° ESE
NOSS 2-1 (D) 4.0 05:05:16 27° ENE 05:05:16 27° ENE 05:07:05 10° NE
Cosmos 2322 Rocket 3.5 05:04:59 20° E 05:04:59 20° E 05:08:42 10° NE
Cosmos 2369 4.3 05:00:50 10° SW 05:06:22 57° WNW 05:11:57 10° NNE
Cosmos 1975 4.1 05:08:19 10° NNE 05:11:42 25° ENE 05:11:59 25° E
Meteor 2-4 Rocket 4.2 05:10:31 30° SE 05:12:43 42° E 05:18:01 10° NNE
GENESIS II 4.2 05:14:02 48° SSE 05:14:34 53° ESE 05:18:21 10° NE
Cosmos 1464 Rocket 4.5 05:09:02 10° SSW 05:15:09 59° W 05:21:14 10° N
Cosmos 2344 4.0 05:08:11 10° SW 05:15:44 60° NW 05:23:10 10° NNE
Meteor 1-19 Rocket 4.0 05:11:31 17° S 05:15:49 87° E 05:21:15 10° N
Helios 1A Rocket 3.0 05:19:41 46° ESE 05:20:28 56° ENE 05:24:23 10° N
MetOp-B 4.2 05:19:22 26° S 05:22:24 73° WSW 05:27:45 10° NNW
Cosmos 1933 Rocket 4.4 05:22:12 10° NNW 05:26:30 47° W 05:28:55 23° SSW
CZ-3 Stage 3 3.6 05:17:14 10° WSW 05:27:33 36° SSW 05:28:02 35° S
Cosmos 2297 Rocket 4.4 05:24:04 10° WNW 05:27:47 18° W 05:31:31 10° SW
Cosmos 1733 Rocket 4.2 05:29:14 10° NNE 05:33:06 28° ENE 05:33:09 28° ENE
Cosmos 1092 Rocket 4.0 05:26:59 10° N 05:33:07 65° E 05:35:23 39° SSE
USA 81 4.3 05:32:10 42° SE 05:33:17 49° E 05:38:22 10° NNE
Nadezhda 4 Rocket 4.1 05:27:18 10° NNW 05:33:29 70° W 05:37:03 26° S
ERS-1 Rocket 3.1 05:32:26 44° SE 05:33:46 59° ENE 05:38:43 10° N
Meteor 2-14 Rocket 4.4 05:27:48 10° N 05:33:55 83° W 05:36:56 32° S
SJ 16-02 2.4 05:29:53 10° SW 05:34:03 44° WNW 05:38:15 10° N
Cosmos 1634 Rocket 4.0 05:33:09 36° SSE 05:35:42 65° E 05:41:50 10° NNE
CZ-2C R/B 3.7 05:32:57 10° NNE 05:37:44 74° ESE 05:38:58 49° S
ATLAS 2AS CENTAUR R/B 3.5 05:30:10 10° SW 05:37:54 62° NW 05:45:28 10° NNE
Meteor 2-9 Rocket 4.3 05:33:23 10° NNW 05:39:07 77° W 05:41:28 36° S
Cosmos 1862 Rocket 4.2 05:43:04 40° E 05:43:04 40° E 05:46:56 10° NNE
SL-16 R/B 2.1 05:42:19 43° S 05:44:01 64° ESE 05:49:38 10° NNE
Cosmos 1346 Rocket 2.7 05:47:19 71° ENE 05:47:19 71° ENE 05:51:08 10° NNE
Resurs 01 Rocket 4.1 05:54:52 10° SW 05:57:23 15° W 05:59:54 10° WNW
Cosmos 2026 Rocket 3.9 05:51:40 10° N 05:57:53 88° E 05:59:48 48° S
OAO 3 Rocket 4.3 05:53:31 10° W 05:57:03 31° SW 05:57:03 31° SW
ISS -2.3 05:56:17 10° NW 05:58:52 33° N 05:58:52 33° N
Cosmos 1378 4.1 06:00:53 38° W 06:01:14 39° W 06:04:42 10° N
Terra 1.6 06:02:20 74° SSE 06:02:46 89° ENE 06:07:33 10° NNW
SPOT 5 3.3 06:01:47 47° SSW 06:03:07 63° W 06:08:16 10° NNW
NOSS 2-1 (E) 4.1 06:03:41 40° NW 06:03:41 40° NW 06:06:27 10° NNE
ATLAS 3B R/B 3.3 05:59:29 10° NNW 06:06:45 54° NE 06:09:35 37° ESE
Meteor 2-8 Rocket 4.4 06:05:07 41° SSW 06:07:25 78° W 06:13:32 10° N
Cosmos 2360 Rocket 2.7 06:09:14 43° E 06:09:14 43° E 06:13:58 10° NE
Meteor 1-13 Rocket 4.3 06:16:36 55° E 06:16:36 55° E 06:22:01 10° NNE
Cosmos 2263 Rocket 2.5 06:11:21 10° NNW 06:16:45 53° WSW 06:17:39 47° SW
Cosmos 990 Rocket 3.8 06:17:50 78° ESE 06:17:55 78° ESE 06:23:10 10° NNE
Okean 1-7 4.5 06:21:25 28° NE 06:21:25 28° NE 06:23:58 10° NNE
SL-4 R/B 4.5 06:23:25 10° W 06:24:51 14° WSW 06:24:51 14° WSW
Cosmos 1898 Rocket 3.6 06:32:56 64° ENE 06:32:56 64° ENE 06:37:42 10° NNE
Iridium 4 Rocket 4.4 06:29:04 10° NNE 06:32:34 35° ENE 06:32:34 35° ENE
Cosmos 2266 Rocket 4.3 06:27:50 10° N 06:33:50 48° E 06:34:11 48° E
H-2A ROCKET BODY 4.3 05:48:55 10° W 06:34:49 49° SSW 06:38:16 41° S
Cosmos 1066 Rocket 4.1 06:34:33 74° SSW 06:35:06 85° W 06:40:49 10° N
ATLAS CENTAUR R/B 3.6 06:33:31 10° N 06:37:07 20° NE 06:37:47 20° ENE
Cosmos 2279 Rocket 4.2 06:36:12 48° SW 06:37:47 64° W 06:43:57 10° N
ARIANE 5 R/B 3.5 06:38:50 43° W 06:38:50 43° W 06:42:46 10° NNW
SL-24 R/B - RUBIN 2 4.3 06:36:18 10° NW 06:39:49 49° WNW 06:39:49 49° WNW
Meteor 1-12 Rocket 4.4 06:37:14 10° N 06:43:06 62° E 06:43:10 62° E
Cosmos 2322 Rocket 2.8 06:46:43 39° WSW 06:48:21 51° WNW 06:53:49 10° NNE
Cosmos 2333 Rocket 2.6 06:55:08 52° ENE 06:55:08 52° ENE 06:59:41 10° NNE
Cosmos 1844 Rocket 2.8 06:50:49 10° NNW 06:56:11 63° NE 06:56:11 63° NE
USA 215 3.1 06:51:57 10° NE 06:58:32 88° SE 07:00:09 56° SW
ADEOS Rocket 4.2 07:00:12 25° ENE 07:00:50 26° ENE 07:05:34 10° N
Meteor 1-23 Rocket 4.2 07:05:14 80° NE 07:05:14 80° NE 07:10:48 10° N
Cosmos 2219 Rocket 2.7 07:13:10 50° NE 07:13:10 50° NE 07:17:30 10° NNE
Cosmos 1726 4.3 07:09:16 10° N 07:10:51 24° N 07:10:51 24° N
Cosmos 1844 3.8 07:15:27 10° NNW 07:20:49 76° N 07:20:49 76° N
ALOS 2 3.9 07:28:57 37° NNE 07:28:57 37° NNE 07:31:47 10° N
Cosmos 2237 Rocket 3.8 07:43:57 23° ENE 07:43:57 23° ENE 07:47:00 10° NE
COSMOS 2428 3.0 07:47:43 64° NNE 07:47:43 64° NNE 07:52:30 10° NNE
Cosmos 2360 Rocket 3.9 07:50:56 21° W 07:52:47 25° WNW 07:57:22 10° N
Cosmos 1867 4.0 07:56:49 60° N 07:56:49 60° N 08:01:30 10° NNE
In-Cosmos 22 4.4 07:57:23 65° N 07:57:23 65° N 08:02:01 10° N
CZ-4C R/B 3.4 07:49:41 10° NNW 07:57:05 59° NE 07:59:52 42° ESE
ATLAS 3B R/B 3.9 07:50:44 10° NW 07:56:50 32° WSW 07:56:50 32° WSW
Meteor 1-21 4.5 08:06:11 66° NW 08:06:11 66° NW 08:11:27 10° N
NOSS 3-1 (C) 4.1 08:01:30 10° NNW 08:09:21 88° WSW 08:10:48 67° SSE
ATLAS CENTAUR R/B 3.5 08:11:36 10° NW 08:13:47 25° NW 08:13:47 25° NW
Nimbus 7 Rocket 4.4 08:10:42 10° NNE 08:16:04 76° NNE 08:16:04 76° NNE
Cosmos 2278 Rocket 3.1 08:12:07 10° N 08:17:27 40° ENE 08:17:53 39° ENE
Cosmos 371 Rocket 4.4 08:20:00 40° NE 08:20:00 40° NE 08:23:12 10° NNE
Lacrosse 5 3.8 08:22:52 21° ENE 08:22:52 21° ENE 08:24:48 10° ENE
SL-08 R/B 4.4 08:18:07 10° N 08:24:08 81° NW 08:24:08 81° NW
SL-16 R/B 3.9 08:31:39 21° E 08:31:39 21° E 08:35:05 10° NE
Cosmos 1980 3.9 08:35:14 66° NE 08:35:14 66° NE 08:40:04 10° NNE
ASTEX 1 4.2 08:31:51 10° N 08:35:31 46° NNW 08:35:31 46° NNW
Cosmos 2333 Rocket 4.2 08:37:06 17° WNW 08:38:48 19° NW 08:42:48 10° N
ADEOS Rocket 3.8 08:47:08 36° WNW 08:47:08 36° WNW 08:51:33 10° NNW
Cosmos 2219 Rocket 4.2 08:54:52 16° WNW 08:56:23 18° NW 09:00:08 10° N
Cosmos 1975 Rocket 4.3 09:02:20 39° NE 09:02:20 39° NE 09:05:29 10° NNE
COSMOS 2455 4.2 09:01:17 26° ESE 09:01:17 26° ESE 09:06:04 10° NE
Cosmos 1709 Rocket 3.8 08:56:24 10° N 09:02:32 78° E 09:02:43 77° ESE
Cosmos 2315 Rocket 3.9 09:02:45 82° SE 09:02:59 85° E 09:09:24 10° N
Cosmos 1025 Rocket 4.4 09:04:29 34° NE 09:04:29 34° NE 09:07:24 10° NNE
EO 1 Delta rocket 4.3 08:59:24 10° NNE 09:03:38 66° NE 09:03:38 66° NE
Cosmos 1125 Rocket 4.4 09:04:48 40° NW 09:04:48 40° NW 09:09:14 10° N
CZ-2D R/B 3.2 09:02:40 10° NNE 09:07:27 33° E 09:07:28 33° E
S3M 4.4 09:07:34 50° W 09:07:43 50° W 09:13:53 10° N
Lacrosse 5 rocket 3.4 09:12:11 22° ENE 09:12:11 22° ENE 09:13:46 10° NE
USA 267 3.1 09:13:29 73° SSW 09:13:54 75° SW 09:20:28 10° NW
Cosmos 1953 4.4 09:16:48 10° NNW 09:18:21 21° NW 09:18:21 21° NW
Cosmos 332 Rocket 4.4 09:21:38 50° NNW 09:21:38 50° NNW 09:25:33 10° N
NOSS 2-2 (C) 4.5 09:17:06 10° NW 09:22:46 73° WSW 09:23:01 72° SW
Meteor 2-5 Rocket 3.7 09:22:35 72° ESE 09:22:47 73° E 09:28:27 10° NNE
Cosmos 2237 Rocket 3.0 09:25:45 39° WNW 09:26:07 39° WNW 09:31:27 10° N
USA 229 DEB 3.9 09:19:04 10° NW 09:26:32 65° WSW 09:27:29 60° SSW
USA 229 3.9 09:19:10 10° NW 09:26:37 65° WSW 09:27:37 60° SSW
GP-B 3.9 09:23:20 10° N 09:26:36 47° NNW 09:26:36 47° NNW
CZ-4 R/B 4.4 09:25:01 10° NNE 09:29:07 49° E 09:29:07 49° E
Resurs 1-4 Rocket 2.3 09:27:01 10° NNE 09:32:13 59° E 09:32:24 59° ESE
Cosmos 1544 Rocket 4.4 09:30:51 10° N 09:34:59 43° ENE 09:34:59 43° ENE
IDEFIX/ARIANE 42P 3.9 09:39:09 10° NE 09:43:48 31° E 09:45:05 28° ESE
Cosmos 1943 Rocket 2.7 09:38:29 10° NNW 09:44:03 55° ENE 09:46:34 31° SE
ADEOS II 3.0 09:40:26 10° NNE 09:45:20 39° E 09:46:18 36° SE
CZ-4C R/B 3.8 09:38:43 10° NW 09:45:00 34° WSW 09:45:00 34° WSW
Thor Agena Rocket 3.9 09:41:58 10° N 09:47:05 51° WNW 09:47:12 51° WNW
Cosmos 839 Rocket 4.5 09:42:54 10° NW 09:49:21 55° WSW 09:50:12 52° SW
MOS 1 Rocket 4.3 09:49:39 31° ESE 09:50:43 36° ENE 09:54:38 10° N
Cosmos 2297 4.5 09:46:20 10° NNW 09:51:57 50° ENE 09:55:48 19° SE
Cosmos 2278 Rocket 3.6 09:56:39 10° NW 09:59:42 23° WNW 09:59:42 23° WNW
Cosmos 1455 2.8 09:59:20 10° N 10:02:19 52° NNE 10:02:19 52° NNE
Lacrosse 5 2.8 10:02:03 35° WNW 10:03:08 39° NW 10:07:56 10° NNE
NPP 3.5 10:02:47 10° N 10:08:11 80° WNW 10:09:05 62° SW
Cosmos 1271 Rocket 3.6 10:08:48 10° N 10:12:30 43° ENE 10:13:07 40° ESE
Cosmos 2369 Rocket 3.6 10:09:18 10° N 10:14:28 37° ENE 10:19:35 10° SE
SL-16 R/B 2.6 10:13:31 42° W 10:14:36 47° WNW 10:20:04 10° N
Cosmos 2154 Rocket 4.1 10:11:50 10° N 10:18:12 78° E 10:21:27 31° SSE
AQUA 3.7 10:13:56 10° N 10:18:42 80° WNW 10:19:20 66° SW
Cosmos 2228 4.1 10:16:30 10° N 10:20:37 41° E 10:22:40 25° SE
Cosmos 1269 Rocket 4.3 10:17:28 10° NNW 10:22:29 47° WSW 10:22:29 47° WSW
SAR-Lupe-2 4.0 10:20:51 10° N 10:23:54 55° NNW 10:23:54 55° NNW
Cosmos 1536 Rocket 3.7 10:30:58 54° W 10:31:13 55° W 10:35:31 10° N
SL-16 R/B 2.5 10:31:19 38° SSW 10:33:37 62° WSW 10:39:48 10° NNW
GPS 2-04 Rocket1 3.9 10:39:11 24° SE 10:39:11 24° SE 10:41:07 10° E
Cosmos 1603 4.0 10:35:48 33° S 10:38:14 60° ESE 10:43:48 10° NNE
Cosmos 292 Rocket 4.1 10:37:52 44° WSW 10:38:47 51° WNW 10:43:29 10° N
Cosmos 2074 Rocket 4.3 10:34:29 10° NNW 10:40:29 47° W 10:42:27 36° SW
Cosmos 1328 4.5 10:41:59 32° SSE 10:43:25 50° E 10:47:17 10° NNE
Cosmos 1295 Rocket 4.5 10:39:09 10° NNW 10:45:27 69° W 10:48:54 28° S
COSMOS 2455 3.4 10:44:25 31° WSW 10:46:49 47° WNW 10:52:37 10° NNE
CZ-2D R/B 3.2 10:42:49 10° N 10:47:21 29° WNW 10:48:47 25° W
Cosmos 2327 Rocket 4.5 10:41:29 10° N 10:47:52 75° W 10:51:55 24° S
Lacrosse 5 rocket 3.3 10:47:42 16° WNW 10:49:15 19° NNW 10:52:12 10° NNE
Helios 1B rocket 3.8 10:47:13 10° NNE 10:50:56 34° E 10:53:29 17° SSE
DNEPR-1 R/B 3.4 10:50:23 47° SSW 10:51:33 84° ESE 10:56:02 10° NNE
Cosmos 1703 3.8 10:56:12 39° W 10:56:38 40° W 11:00:21 10° N
Cosmos 1606 Rocket 3.7 10:53:47 10° N 10:58:11 74° E 11:01:20 18° SSE
EO 1 Del DPAF 3.8 10:57:14 10° N 11:00:28 34° WNW 11:00:43 34° W
OAO 2 Rocket 3.6 11:00:43 35° SW 11:02:19 48° SSE 11:07:04 10° E
MSX 3.9 10:57:34 10° N 11:03:17 65° WNW 11:06:27 27° SW
Helios 1A 3.3 11:04:40 36° SW 11:05:48 46° W 11:09:53 10° NNW
Cosmos 1943 3.3 11:05:15 29° SW 11:08:12 68° WNW 11:13:53 10° NNE
Lacrosse 4 Rocket 3.1 11:07:59 13° SSE 11:11:08 28° ESE 11:14:48 10° NE
Resurs 1-4 Rocket 3.9 11:08:15 10° NNW 11:11:31 17° WNW 11:13:28 14° W
Cosmos 1624 Rocket 4.3 11:07:53 19° S 11:11:38 66° ESE 11:16:53 10° NNE
Cosmos 1408 3.5 11:09:12 16° SSE 11:11:48 45° E 11:15:17 10° NNE
Cosmos 962 Rocket 4.4 11:07:28 10° NNW 11:13:33 70° W 11:19:07 13° S
Cosmos 2181 Rocket 4.0 11:10:08 15° S 11:15:22 87° E 11:21:33 10° N
Meteor 1-28 Rocket 4.2 11:15:45 26° W 11:15:47 26° W 11:18:59 10° NW
Cosmos 1892 3.7 11:12:43 13° SSE 11:15:51 44° E 11:19:28 10° NNE
ARIANE 5 R/B 3.9 11:12:02 10° NNE 11:16:37 34° E 11:21:07 10° SSE
Meteor 2-1 Rocket 4.2 11:13:01 10° NNW 11:18:44 75° W 11:24:18 10° S
CBERS-1 4.0 11:15:03 10° NNE 11:20:12 86° W 11:24:04 18° SSW
IDEFIX/ARIANE 42P 3.6 11:18:44 10° N 11:23:16 30° WNW 11:25:53 20° WSW
Cosmos 2056 Rocket 3.5 11:19:47 19° SSW 11:23:32 85° ESE 11:28:49 10° NNE
ADEOS II 3.4 11:20:36 10° NNW 11:24:45 24° WNW 11:27:14 17° WSW
Cosmos 1943 Rocket 3.6 11:23:31 10° WNW 11:27:16 18° W 11:28:00 18° WSW
ALOS 2.8 11:24:24 10° NNE 11:29:00 58° E 11:33:35 10° S
FENGYUN 3A 3.8 11:24:06 10° NNE 11:29:29 73° ESE 11:34:51 10° S
Cosmos 1892 Rocket 3.8 11:28:11 21° SSW 11:30:59 55° W 11:35:23 10° N
IRS-1D 4.2 11:28:52 10° N 11:33:50 41° WNW 11:37:18 18° SW
Cosmos 2263 4.2 11:31:03 10° NNW 11:36:40 63° WSW 11:42:18 10° S
Cosmos 2251 Rocket 4.0 11:32:09 10° NW 11:37:00 38° WSW 11:41:50 10° SSW
Cosmos 1726 Rocket 3.8 11:32:53 10° NNW 11:37:10 50° W 11:41:06 11° SSW
Cosmos 1190 Rocket 4.1 11:35:08 10° NNW 11:40:27 81° ENE 11:45:45 10° SSE
Meteor 1-29 3.6 11:42:02 10° NNE 11:45:13 50° E 11:48:23 10° S
Lacrosse 5 4.4 11:45:27 10° NW 11:47:25 12° NNW 11:49:23 10° N
CZ-2C R/B 2.5 11:43:48 10° NNE 11:48:55 90° WNW 11:53:50 10° SSW
PAYLOAD A 3.8 11:47:42 10° NNE 11:52:28 83° WNW 11:57:21 10° SSW
